Weather in Ust'-Yansk

Russia / Sakha (Yakutia) Republic     70°54′47″N   136°26′58″E
temp.,
°C
wind,
m/s
gust,
m/s
humid.,
%
clouds,
%
prec.,
mm/h
press.,
hPa
HPBL,
m
26 february, fri
fri2601:00−36s1210069 0.0 103419
04:00−36ssw129656 0.0 103419
07:00−37s129454 0.0 103419
10:00−36ssw129155 0.0 103519
13:00−34s229111 0.0 103519
16:00−35ssw11925 0.0 103419
19:00−36sse129139 0.0 103519
22:00−37sse119152 0.0 103519
27 february, sat
sat2701:00−37se119153 0.0 103419
04:00−35se118974 0.0 103419
07:00−34ese2288100 0.0 103419
10:00−35se228698 0.0 103319
13:00−33ese228885 0.0 103331
16:00−34ese128775 0.0 103219
19:00−36ese128878 0.0 103219
22:00−35sse118884 0.0 103219
28 february, sun
sun2801:00−33se1188100 0.0 103119
04:00−33ese1189100 0.0 103019
07:00−35ese129076 0.0 103019
10:00−35ese128875 0.0 102919
13:00−33ene228966 0.0 102819
16:00−34ene229670 0.0 102719
19:00−37ene1110068 0.0 102719
22:00−38e1110061 0.0 102719
1 march, mon
mon101:00−38ese1110057 0.0 102719
04:00−39ese0110043 0.0 102619
07:00−39se1110060 0.0 102719
10:00−38se019867 0.0 102619
13:00−35ene119580 0.0 102619
16:00−36e119579 0.0 102619
19:00−39e0110061 0.0 102619
22:00−39ene0110062 0.0 102719
2 march, tue
tue201:00−39ne0010061 0.0 102719
04:00−40ssw0010063 0.0 102718
07:00−40nw0010085 0.0 102818
10:00−39se019882 0.0 102818
13:00−36sse119584 0.0 102837
16:00−37ese119683 0.0 102819
19:00−39ese1110084 0.0 103019
22:00−39se1110088 0.0 103018